Location: Brno
(49.2000°N, 16.6330°E)
Time: 10:13:19
(UTC+02:00)

Transit 2A - All Passes

Search period start: 24 July 2021 00:00
Search period end: 03 August 2021 00:00
Orbit: 598 x 960 km, 66.7° (Epoch: 23 July)

Date Brightness Start Highest point End Pass type
(mag) Time Alt. Az. Time Alt. Az. Time Alt. Az.
24 Jul - 08:24:28 10° S 08:28:08 27° ESE 08:31:58 10° NE daylight
24 Jul - 10:06:47 10° WSW 10:11:02 45° NW 10:15:35 10° NNE daylight
24 Jul - 11:52:58 10° NW 11:55:29 14° NNW 11:58:05 10° NNE daylight
24 Jul - 13:39:59 10° N 13:40:56 10° N 13:41:53 10° NNE daylight
24 Jul - 15:22:21 10° NNW 15:26:09 20° NNE 15:30:11 10° ENE daylight
24 Jul - 17:04:55 10° NNW 17:10:10 70° NE 17:15:59 10° SE daylight
24 Jul - 18:48:44 10° WNW 18:53:02 24° WSW 18:57:36 10° SSW daylight
25 Jul - 07:51:09 10° SSE 07:54:10 18° ESE 07:57:16 10° ENE daylight
25 Jul - 09:32:23 10° SW 09:36:44 64° NW 09:41:26 10° NNE daylight
25 Jul - 11:17:56 10° WNW 11:20:55 17° NNW 11:24:04 10° NNE daylight
25 Jul - 13:05:35 10° N 13:06:15 10° N 13:06:56 10° N daylight
25 Jul - 14:48:18 10° NNW 14:51:37 17° NNE 14:55:08 10° ENE daylight
25 Jul - 16:30:46 10° NNW 16:35:55 53° NE 16:41:34 10° SE daylight
25 Jul - 18:14:10 10° NW 18:18:59 33° WSW 18:24:10 10° S daylight
26 Jul - 07:18:29 10° SE 07:20:14 12° ESE 07:22:01 10° E daylight
26 Jul - 08:58:08 10° SW 09:02:30 90° WSW 09:07:14 10° NE daylight
26 Jul - 10:43:00 10° W 10:46:24 20° NNW 10:50:01 10° NNE daylight
26 Jul - 12:30:39 10° NNW 12:31:36 10° N 12:32:33 10° N daylight
26 Jul - 14:14:14 10° NNW 14:17:04 15° NNE 14:20:00 10° NE daylight
26 Jul - 15:56:39 10° NNW 16:01:36 41° NE 16:07:01 10° ESE daylight
26 Jul - 17:39:46 10° NW 17:44:53 45° WSW 17:50:28 10° S daylight
27 Jul - 08:24:03 10° SSW 08:28:21 63° ESE 08:32:59 10° NE daylight
27 Jul - 10:08:11 10° W 10:11:56 25° NW 10:15:57 10° NNE daylight
27 Jul - 11:55:29 10° NNW 11:56:56 11° N 11:58:25 10° N daylight
27 Jul - 13:40:11 10° N 13:42:28 13° NNE 13:44:49 10° NE daylight
27 Jul - 15:22:33 10° NNW 15:27:14 32° NE 15:32:19 10° ESE daylight
27 Jul - 17:05:27 10° NW 17:10:45 62° WSW 17:16:34 10° SSE daylight
27 Jul - 18:51:31 10° W 18:53:05 11° WSW 18:54:42 10° WSW daylight
28 Jul - 07:50:08 10° S 07:54:15 42° ESE 07:58:39 10° NE daylight
28 Jul - 09:33:30 10° WSW 09:37:31 32° NW 09:41:52 10° NNE daylight
28 Jul - 11:20:19 10° NW 11:22:18 12° NNW 11:24:21 10° N daylight
28 Jul - 13:06:06 10° N 13:07:49 12° NNE 13:09:37 10° NNE daylight
28 Jul - 14:48:28 10° NNW 14:52:49 26° NE 14:57:31 10° E daylight
28 Jul - 16:31:13 10° NW 16:36:35 83° SW 16:42:29 10° SSE daylight
28 Jul - 18:15:49 10° WNW 18:19:09 16° WSW 18:22:40 10° SW daylight
29 Jul - 07:16:27 10° S 07:20:13 29° ESE 07:24:12 10° NE daylight
29 Jul - 08:58:56 10° WSW 09:03:10 43° NW 09:07:45 10° NNE daylight
29 Jul - 10:45:12 10° NW 10:47:42 14° NNW 10:50:18 10° NNE daylight
29 Jul - 12:31:55 10° N 12:33:10 11° N 12:34:28 10° NNE daylight
29 Jul - 14:14:25 10° NNW 14:18:23 21° NNE 14:22:35 10° E daylight
29 Jul - 15:57:01 10° NNW 16:02:22 74° NE 16:08:15 10° SE daylight
29 Jul - 17:40:56 10° WNW 17:45:11 23° WSW 17:49:40 10° SSW daylight
30 Jul - 06:43:03 10° SSE 06:46:14 20° ESE 06:49:34 10° ENE daylight
30 Jul - 08:24:30 10° SW 08:28:53 60° NW 08:33:36 10° NNE daylight
30 Jul - 10:10:09 10° WNW 10:13:07 17° NNW 10:16:15 10° NNE daylight
30 Jul - 11:57:31 10° N 11:58:30 10° N 11:59:31 10° NNE daylight
30 Jul - 13:40:21 10° NNW 13:43:51 18° NNE 13:47:34 10° ENE daylight
30 Jul - 15:22:52 10° NNW 15:28:07 56° NE 15:33:51 10° SE daylight
30 Jul - 17:06:21 10° NW 17:11:08 31° WSW 17:16:17 10° S daylight
31 Jul - 06:10:10 10° SE 06:12:19 13° ESE 06:14:30 10° ENE daylight
31 Jul - 07:50:14 10° SW 07:54:38 84° WNW 07:59:25 10° NE daylight
31 Jul - 09:35:13 10° WNW 09:38:36 20° NNW 09:42:12 10° NNE daylight
31 Jul - 11:22:44 10° NNW 11:23:50 11° N 11:24:58 10° N daylight
31 Jul - 13:06:17 10° NNW 13:09:18 15° NNE 13:12:27 10° ENE daylight
31 Jul - 14:48:44 10° NNW 14:53:48 43° NE 14:59:20 10° ESE daylight
31 Jul - 16:31:55 10° NW 16:37:03 43° WSW 16:42:38 10° S daylight
01 Aug - 07:16:06 10° SSW 07:20:28 68° ESE 07:25:11 10° NE daylight
01 Aug - 09:00:22 10° W 09:04:07 24° NW 09:08:08 10° NNE daylight
01 Aug - 10:47:40 10° NNW 10:49:10 11° N 10:50:43 10° N daylight
01 Aug - 12:32:12 10° NNW 12:34:42 13° NNE 12:37:18 10° NE daylight
01 Aug - 14:14:38 10° NNW 14:19:27 34° NE 14:24:41 10° ESE daylight
01 Aug - 15:57:35 10° NW 16:02:56 59° WSW 16:08:46 10° SSE daylight
01 Aug - 17:44:12 10° W 17:45:13 10° WSW 17:46:14 10° WSW daylight
02 Aug - 06:42:09 10° S 06:46:21 46° ESE 06:50:52 10° NE daylight
02 Aug - 08:25:40 10° WSW 08:29:42 31° NW 08:34:02 10° NNE daylight
02 Aug - 10:12:32 10° NW 10:14:31 12° NNW 10:16:36 10° N daylight
02 Aug - 11:58:05 10° N 12:00:05 12° NNE 12:02:08 10° NE daylight
02 Aug - 13:40:33 10° NNW 13:45:03 27° NE 13:49:53 10° E daylight
02 Aug - 15:23:20 10° NW 15:28:46 79° WSW 15:34:43 10° SSE daylight
02 Aug - 17:08:06 10° WNW 17:11:18 16° WSW 17:14:37 10° SW daylight
